GFSSW_850_temp_171.txt.gz
Temp
18 18 18 19 19 20 21 21 21 22 23 24 24 25 25 26 27 27 27 28 28 28 28 26 26 28 29 31 32 33 34 33 33 32 30 30 30 27 26 23 23 23 20 17 17
18 18 19 19 19 20 20 21 21 22 22 23 24 24 25 26 27 27 28 28 28 28 27 29 31 31 32 34 34 34 34 33 34 32 31 30 30 28 28 25 21 20 18 18 17
18 18 18 19 19 20 20 21 21 22 22 23 24 24 25 26 27 30 29 29 29 28 28 29 30 32 34 34 34 35 34 34 32 31 31 30 29 29 29 27 23 20 17 17 17
17 18 18 18 19 20 20 21 21 21 22 23 23 24 24 25 30 29 29 29 29 29 27 30 31 33 35 35 34 34 34 33 32 31 31 30 30 29 28 27 24 21 19 17 17
16 17 18 18 18 19 20 20 21 21 22 22 23 23 24 25 28 29 28 28 29 29 28 30 32 34 35 35 35 34 34 32 31 31 30 30 29 28 26 24 23 20 19 18 18
15 15 16 17 18 19 19 20 21 21 22 22 22 23 23 27 28 27 28 27 28 28 29 30 32 33 34 35 35 34 33 32 31 31 30 30 29 28 25 23 21 20 20 19 19
14 15 15 16 17 18 19 19 20 21 21 22 22 22 22 27 27 27 27 28 29 29 30 31 32 33 34 35 34 34 34 33 33 32 32 31 31 28 25 23 21 20 19 19 19
14 14 15 15 16 17 18 19 20 21 21 22 22 21 24 27 27 27 28 28 28 29 30 31 31 32 34 34 35 35 35 33 33 33 32 32 30 29 26 24 23 22 20 20 19
13 14 15 15 16 17 18 19 20 21 21 21 21 21 26 26 26 27 28 29 29 29 30 30 31 33 34 35 35 33 28 31 33 34 34 33 31 29 28 27 25 24 23 22 22
12 13 14 15 15 16 18 19 20 20 21 21 20 23 25 27 28 28 28 29 30 30 30 30 32 34 35 36 33 28 31 35 34 34 34 34 32 31 29 29 28 27 25 24 24
10 12 13 14 15 16 18 18 20 19 20 25 27 26 28 28 27 28 29 29 30 31 32 32 33 34 35 35 34 36 34 35 35 35 34 35 33 32 30 30 30 29 27 26 26
9 10 13 14 15 16 16 19 18 16 21 24 24 26 28 27 28 28 29 29 30 32 33 34 33 36 37 36 35 36 35 35 35 35 34 35 34 34 32 32 31 30 29 28 27
7 9 11 13 14 15 15 17 16 17 21 25 26 26 27 27 28 30 29 30 32 32 33 33 34 36 36 35 35 36 36 35 35 35 35 35 34 34 34 33 32 31 30 29 28
6 8 10 12 13 13 17 15 16 17 23 28 28 28 27 27 29 30 29 30 33 32 34 34 36 35 35 35 35 35 36 35 35 34 34 36 32 34 35 34 33 32 31 30 29
6 6 8 9 12 13 15 14 15 17 24 32 30 28 28 28 30 29 30 31 33 33 34 34 35 35 35 35 36 35 37 36 35 35 35 35 34 35 35 34 34 34 32 32 30
5 6 7 8 9 11 12 14 16 22 24 30 29 29 30 29 30 31 30 30 32 33 34 35 35 36 35 36 36 36 35 35 35 35 34 35 35 35 35 35 35 35 34 32 31
5 6 6 6 9 12 12 14 20 23 29 30 29 30 31 30 31 32 31 30 31 31 32 34 35 36 35 35 36 35 34 33 33 34 34 37 35 35 37 37 37 36 34 33 32
5 6 7 7 9 10 12 17 20 26 28 32 31 31 30 31 31 32 31 30 32 33 33 32 32 34 35 35 35 34 35 34 31 33 35 35 34 36 38 37 37 36 35 34 33
5 6 8 10 10 10 12 17 21 27 29 31 31 30 30 31 32 32 31 31 32 33 32 32 32 35 35 35 35 34 33 36 35 36 35 35 36 38 38 37 37 37 36 35 34
3 6 9 10 10 10 14 16 23 27 30 31 29 31 30 31 31 31 31 32 32 34 35 35 32 35 35 35 35 35 36 34 35 33 33 36 35 35 36 37 38 37 37 36 35
4 9 11 10 10 11 14 17 20 25 28 29 30 31 31 31 32 32 32 33 34 33 34 35 35 34 35 34 34 34 35 35 36 36 35 34 35 38 37 38 37 37 36 36 35
6 11 10 10 11 13 15 18 20 23 26 27 28 30 31 32 32 32 32 33 34 34 33 35 34 34 34 35 36 36 35 35 34 33 36 36 37 39 38 38 37 36 35 35 35
7 10 11 10 13 15 17 18 20 23 25 26 26 28 31 31 31 32 33 34 34 34 33 34 33 32 33 35 35 35 35 36 36 36 34 35 35 38 38 37 36 37 35 34 34
5 11 12 11 12 15 17 18 19 21 24 25 26 28 29 30 31 31 32 34 34 34 33 33 33 33 34 33 35 33 35 35 36 35 35 35 36 37 37 37 36 36 35 34 33
6 9 7 12 15 15 17 18 20 21 22 23 25 27 28 28 29 30 32 33 34 32 32 33 31 33 34 36 35 35 35 35 35 35 35 36 36 37 37 37 37 36 35 33 32
5 7 8 11 12 13 12 16 18 21 21 22 23 25 27 28 29 29 31 32 32 33 32 33 30 32 32 35 36 34 35 35 36 36 36 36 36 38 37 37 36 36 33 32 31
6 5 7 11 14 14 15 16 17 20 21 22 24 25 26 28 28 28 29 31 33 31 31 31 31 31 30 33 34 33 35 35 35 36 36 35 36 38 37 37 36 36 35 32 31

GFSSW_850_temp_174.txt.gz
Temp
18 18 18 19 19 20 20 21 21 22 23 23 24 25 26 26 27 27 28 29 28 29 28 27 27 29 30 31 33 34 33 33 33 32 31 31 30 28 26 25 24 23 19 17 17
17 18 18 18 19 19 20 20 21 22 22 23 24 25 25 26 27 28 29 29 29 29 29 30 31 32 33 34 31 32 34 33 34 33 32 32 30 28 26 24 22 21 18 18 17
17 18 18 18 19 19 19 20 21 21 22 23 23 24 25 26 27 30 29 29 29 29 29 29 31 32 34 36 26 34 34 34 33 33 32 31 30 31 28 25 22 20 19 18 18
16 17 18 18 19 19 20 20 20 21 22 22 23 24 24 25 29 29 29 29 29 29 29 29 31 33 35 36 35 34 34 33 33 32 32 31 31 29 28 25 22 20 19 19 19
15 16 17 18 18 19 20 20 21 21 21 22 22 23 24 24 27 29 29 29 29 30 29 30 32 34 35 36 35 35 34 33 33 32 31 31 29 28 26 24 22 20 20 19 18
14 15 16 17 18 19 19 20 20 21 21 22 22 22 23 25 29 29 29 29 29 29 29 31 32 34 35 33 32 33 34 33 32 32 31 30 29 27 25 24 21 20 20 20 19
14 15 15 16 17 18 19 20 20 21 21 22 22 22 21 25 29 30 29 29 30 30 31 31 33 33 35 36 32 32 34 33 33 33 32 32 30 27 25 24 22 21 21 20 20
13 14 15 15 16 17 18 19 20 21 21 21 22 21 22 26 27 28 29 29 30 31 31 32 32 33 34 32 31 26 26 28 34 34 33 33 28 28 26 24 24 22 21 21 21
12 13 14 15 15 16 18 19 20 21 21 21 22 22 25 27 27 28 29 30 30 31 31 31 32 32 33 31 26 20 21 24 30 35 34 34 30 29 27 26 25 23 22 21 21
11 12 14 14 15 16 18 19 20 21 21 21 21 22 25 28 28 28 29 30 31 31 31 31 32 33 35 34 26 24 24 26 27 34 35 34 32 30 29 29 27 25 24 24 23
10 11 13 14 15 15 18 20 20 19 19 24 26 25 28 28 30 29 29 30 30 32 32 32 32 32 34 33 27 29 31 30 33 36 34 29 32 31 31 31 29 28 26 26 25
10 11 12 14 15 16 17 17 20 19 21 23 23 26 27 29 30 30 30 30 31 32 33 33 32 34 36 36 31 31 30 34 35 36 35 34 33 32 32 32 31 30 28 27 26
9 10 11 13 15 15 16 18 18 19 21 24 25 26 27 28 29 30 30 31 32 32 33 32 34 35 36 35 35 35 36 35 35 35 36 36 34 33 33 33 32 31 30 29 28
8 9 10 12 14 15 16 17 18 19 21 26 28 27 28 28 30 30 30 31 32 32 33 33 35 35 35 35 36 35 36 36 36 35 34 36 33 33 33 33 33 32 31 30 29
7 7 9 9 11 13 15 15 17 19 21 31 30 29 28 29 30 30 31 31 32 32 33 33 34 35 35 36 36 35 37 36 36 35 35 35 33 34 34 33 33 33 32 31 30
7 7 7 8 9 12 13 15 17 20 22 29 33 31 30 30 30 31 31 31 32 33 34 34 35 36 36 37 37 37 36 36 36 35 33 35 34 33 34 34 34 34 33 32 31
6 7 7 7 8 11 12 15 19 20 27 29 31 31 30 30 30 32 31 31 31 30 32 33 34 36 37 36 36 36 35 33 32 33 33 37 34 34 36 36 36 35 34 33 31
6 7 8 8 8 10 12 16 18 24 26 32 32 31 30 31 31 31 31 31 32 32 32 32 32 35 36 36 35 35 35 33 31 32 34 36 35 35 38 37 37 36 35 34 33
6 7 8 10 11 11 13 15 19 24 27 29 33 31 30 31 31 31 32 31 32 33 31 33 32 36 36 36 36 35 34 36 34 36 35 36 37 37 38 37 37 37 36 35 34
5 5 8 10 12 12 14 14 20 24 27 29 29 32 30 31 31 31 32 32 32 33 35 34 32 35 36 36 36 35 36 33 35 31 32 35 35 35 36 37 37 37 37 35 34
5 9 12 13 12 13 14 15 18 19 24 27 28 31 32 31 32 32 32 33 33 33 34 34 34 34 35 34 34 34 35 35 35 35 33 33 34 38 36 37 37 38 37 36 35
7 10 12 11 13 14 14 15 17 20 22 24 26 28 31 32 32 32 32 33 34 34 33 34 34 33 34 36 36 35 35 35 34 32 35 35 35 39 38 38 38 37 37 37 36
7 10 11 11 12 14 15 16 17 19 20 22 25 28 30 30 31 33 33 35 34 34 34 34 33 33 33 35 35 34 35 35 36 35 34 34 35 39 38 38 37 37 37 36 36
5 8 7 11 12 14 15 16 17 18 20 22 24 27 28 29 30 31 33 35 34 35 34 33 34 33 33 34 35 33 35 36 35 34 35 35 35 37 37 37 37 37 36 36 35
7 6 4 6 7 11 15 16 18 19 20 21 23 25 27 27 29 31 33 34 35 34 32 34 31 33 34 36 36 35 35 35 35 35 35 36 36 36 36 37 37 36 35 35 34
4 5 7 9 9 11 14 15 16 20 21 21 22 25 26 27 29 30 32 33 33 35 34 35 31 33 33 35 36 35 35 35 35 36 36 36 37 38 37 37 37 36 35 34 34
4 5 6 9 10 12 14 15 17 19 22 23 24 24 25 27 25 27 29 33 34 34 33 33 33 31 31 33 34 34 35 35 36 36 36 35 37 38 37 37 36 35 34 33 33

GFSSW_850_temp_180.txt.gz
Temp
18 18 18 19 19 20 20 21 21 22 22 23 24 24 26 27 27 28 29 29 29 29 28 28 29 28 26 26 28 28 24 25 25 25 24 24 23 22 21 19 20 19 17 17 17
17 18 18 19 19 20 20 21 21 22 22 23 23 24 25 26 28 29 29 29 29 29 28 29 29 29 28 29 28 26 23 27 28 26 25 24 23 22 20 19 18 17 17 17 17
16 16 17 18 19 19 20 20 21 22 22 23 23 23 24 25 27 29 29 29 29 29 29 29 29 29 28 29 27 25 25 28 27 27 25 24 23 22 19 19 17 17 17 17 17
15 16 16 17 18 19 19 20 21 21 22 22 23 23 24 24 25 28 29 29 28 29 29 29 29 28 27 28 29 27 29 29 28 27 25 25 23 21 21 19 17 19 17 17 16
15 15 16 16 17 18 18 19 20 21 21 22 22 23 23 23 26 29 29 28 28 29 29 29 29 29 28 29 30 29 28 28 27 26 26 24 23 22 19 18 17 17 17 16 17
14 15 16 16 16 17 18 19 20 20 21 21 22 22 22 19 28 28 28 28 28 28 29 29 29 30 29 29 28 30 29 27 26 26 24 22 21 21 19 18 17 17 17 17 17
14 14 15 16 16 17 18 19 20 20 20 21 21 21 20 23 27 27 27 28 28 28 28 29 29 29 30 28 30 29 27 26 26 26 24 23 21 20 19 18 18 18 18 18 18
13 14 15 15 16 17 18 19 20 20 21 21 21 20 20 25 26 27 28 27 28 29 29 29 30 30 29 28 26 25 23 24 28 26 25 24 19 20 20 20 19 18 18 18 18
13 14 14 15 15 17 18 20 20 21 20 20 20 20 20 24 25 28 28 28 29 29 29 30 30 30 29 24 22 21 23 24 27 28 26 24 20 21 20 20 20 20 19 19 19
12 13 14 15 15 16 19 20 20 20 20 20 19 18 23 25 26 26 28 28 28 29 29 30 30 24 23 23 23 25 25 23 25 27 27 23 22 21 20 20 20 20 20 20 19
11 12 14 14 15 16 18 19 18 19 17 18 19 22 24 24 25 26 27 28 27 28 25 28 25 24 25 26 26 27 26 24 24 27 26 24 23 21 21 21 21 20 20 20 20
10 11 13 14 15 15 15 14 13 11 13 18 20 19 22 21 21 26 26 27 26 24 25 25 23 26 27 27 28 27 26 24 25 26 24 23 22 23 22 21 21 20 20 20 20
9 10 12 14 15 14 14 14 15 15 15 18 20 21 22 22 22 24 25 27 25 24 24 23 26 28 29 28 28 27 25 26 26 27 26 25 23 23 23 23 22 21 21 21 21
8 9 10 12 14 13 14 15 16 15 12 16 19 21 23 23 22 26 26 26 26 24 25 24 28 28 28 28 28 26 28 28 27 25 23 26 22 23 24 23 23 22 22 21 21
8 8 9 8 10 11 13 15 16 16 16 22 22 25 24 23 25 27 28 26 25 25 25 25 27 27 28 29 29 29 29 28 28 27 27 26 23 23 23 24 24 23 23 23 22
8 8 9 10 10 10 12 14 15 13 14 21 24 21 20 23 25 28 28 27 29 26 26 26 29 28 29 30 30 31 30 29 27 24 23 26 24 23 25 26 25 25 24 24 23
7 8 9 9 10 10 11 13 11 11 18 22 24 22 21 20 23 24 26 24 24 24 23 26 27 29 30 28 29 30 29 26 25 23 25 23 25 24 27 28 27 25 25 25 25
7 8 9 10 10 9 10 8 10 15 17 21 22 21 22 22 22 24 24 24 23 24 21 23 24 28 29 28 27 27 30 24 25 24 26 25 26 28 29 29 29 27 27 26 25
7 8 10 10 10 8 8 6 9 13 18 15 19 21 22 24 23 23 23 23 25 23 24 21 23 28 29 30 28 29 27 26 24 25 25 26 28 29 29 29 29 27 27 26 26
7 7 10 9 9 8 5 6 9 12 14 14 15 17 16 16 19 23 22 25 25 25 25 25 24 26 30 30 29 27 28 28 21 26 27 25 28 27 27 28 29 27 28 27 26
6 5 10 9 9 8 4 6 10 12 12 13 12 13 15 16 18 18 23 26 26 26 25 24 23 25 28 27 28 27 27 25 22 22 23 24 25 25 28 29 28 28 29 28 27
5 2 9 8 7 6 6 9 11 12 12 12 14 13 14 15 15 17 20 24 28 28 25 25 21 23 24 28 29 26 27 24 22 25 22 22 25 29 29 28 30 29 29 28 29
4 4 8 8 4 3 5 7 8 10 11 12 14 14 14 14 14 17 20 24 21 27 27 25 22 21 24 25 27 28 27 24 21 21 23 24 25 29 27 28 30 30 30 29 28
3 1 6 6 6 5 4 5 8 10 11 12 13 14 13 13 14 15 17 21 22 26 29 28 21 25 23 26 26 28 28 27 24 22 23 23 27 29 30 27 27 30 30 29 29
3 3 3 2 3 3 4 6 7 8 11 11 12 13 13 12 14 15 17 19 22 25 25 26 25 23 27 27 28 28 28 27 25 25 25 28 26 27 28 26 28 30 30 30 29
3 2 2 3 4 4 5 5 7 9 8 9 10 13 14 13 14 15 17 17 18 20 25 22 24 23 25 26 27 28 28 29 28 26 26 26 27 27 30 30 30 30 29 29 29
3 3 3 3 3 4 5 5 6 7 8 11 11 10 12 14 17 17 18 19 19 19 19 22 27 22 25 27 27 25 27 28 29 29 28 27 26 29 31 29 31 31 32 30 30

GFSSW_850_temp_183.txt.gz
Temp
17 18 18 19 19 19 20 20 21 21 22 23 24 24 25 27 27 28 29 29 28 28 28 28 28 27 25 25 25 25 23 23 24 23 22 22 21 21 20 19 19 18 18 17 16
17 17 18 18 19 19 20 20 21 21 22 22 23 24 25 27 28 28 28 29 29 28 28 28 28 27 25 25 26 24 21 25 26 24 23 23 22 20 20 19 17 17 18 17 16
16 17 17 17 18 19 20 20 20 21 21 22 23 24 25 26 27 28 28 28 28 28 28 28 28 28 27 27 26 24 24 25 25 25 23 23 22 21 19 18 18 16 16 16 16
15 16 17 17 18 18 19 20 20 21 21 22 22 23 24 24 25 28 28 28 28 28 28 28 29 28 26 26 27 27 27 26 25 24 23 23 22 20 20 19 20 18 18 16 16
14 14 15 16 17 18 19 19 20 20 21 21 22 22 22 23 26 28 28 28 28 29 28 28 29 28 26 27 28 26 25 26 25 24 23 23 21 20 18 17 18 17 17 17 16
14 14 14 15 16 17 18 19 20 20 21 21 21 21 21 19 27 28 28 28 27 28 28 28 28 29 28 28 27 28 25 25 24 24 22 20 20 20 17 17 16 17 17 17 17
13 14 15 15 16 17 18 19 19 20 20 21 21 21 20 22 26 27 27 27 27 28 29 29 29 28 29 27 27 26 23 23 23 22 21 22 19 18 17 17 17 17 17 17 17
13 14 14 15 16 17 18 19 19 20 20 20 20 20 20 25 25 26 27 27 26 27 28 29 29 29 28 27 25 24 22 22 24 23 22 22 19 19 18 17 17 17 17 18 18
13 13 14 15 15 17 18 19 20 20 20 20 20 19 21 24 24 26 26 27 27 27 28 29 28 29 26 23 22 21 22 24 25 25 23 22 19 19 18 19 18 18 18 18 18
12 13 14 14 15 16 17 18 18 19 19 19 18 19 22 24 24 24 26 27 28 27 28 29 28 23 21 22 22 23 23 23 24 25 24 21 19 19 19 19 19 19 19 19 19
11 13 13 14 15 15 17 17 18 17 17 17 18 19 21 22 23 25 25 26 26 26 24 26 23 23 24 23 25 25 24 24 24 26 24 22 20 19 19 19 19 19 19 19 20
10 11 13 14 14 14 14 13 9 9 9 19 19 19 22 20 19 25 25 25 25 23 23 24 22 24 25 26 26 26 26 24 25 25 24 21 21 20 19 19 19 19 19 20 20
9 10 12 13 14 13 13 12 12 11 9 17 20 21 22 21 20 24 24 25 24 22 22 22 24 25 26 26 25 25 24 24 26 25 24 23 21 20 20 20 20 20 20 20 20
8 9 10 12 12 12 13 13 13 13 11 15 17 20 21 22 21 24 24 26 24 23 21 23 25 26 26 27 26 23 25 26 25 24 23 24 22 20 21 20 21 20 20 20 20
8 8 9 9 9 10 12 14 15 15 14 20 19 22 21 22 24 24 25 25 23 23 22 23 24 24 25 27 26 26 27 26 26 23 24 24 23 22 21 21 21 21 21 20 21
8 8 8 9 9 10 11 14 15 12 13 18 21 19 19 21 23 25 24 26 26 24 24 24 27 25 26 28 29 29 29 27 22 21 21 23 23 22 20 23 22 22 22 22 22
7 8 8 8 9 10 11 12 10 10 16 19 20 19 19 19 21 23 22 22 21 20 22 24 25 27 29 28 27 28 23 22 22 21 21 22 22 26 24 25 24 24 23 22 23
7 8 9 9 9 10 10 9 10 13 13 15 14 17 19 20 20 22 22 22 22 22 18 21 23 25 26 25 25 25 23 21 22 22 23 22 23 26 28 27 26 25 25 23 23
7 8 8 8 8 9 9 7 9 11 13 12 14 16 15 15 18 21 20 24 23 20 22 19 22 26 27 27 27 25 24 26 24 21 22 22 25 27 25 26 26 25 24 24 24
6 8 8 8 8 8 5 6 7 11 12 11 10 12 13 14 15 17 20 21 23 23 23 22 23 24 28 27 26 25 25 24 19 23 24 24 25 26 25 25 25 25 24 25 25
6 7 8 7 7 7 3 3 8 11 11 11 10 11 12 13 13 15 18 23 23 22 22 22 21 24 26 25 27 25 24 22 21 20 22 23 25 23 24 25 25 25 26 26 26
4 2 8 8 6 3 3 7 9 9 10 10 12 11 12 13 12 14 16 18 19 21 22 21 19 22 24 26 26 26 25 23 22 23 19 22 24 28 24 26 27 27 26 28 29
3 3 7 7 3 2 4 6 7 8 9 10 10 12 12 11 11 13 15 19 18 18 20 21 19 20 25 24 25 25 24 22 20 19 21 23 24 25 25 25 28 28 28 27 29
3 1 5 5 5 4 4 4 6 8 8 9 10 11 11 11 11 12 14 16 17 18 20 20 17 23 22 25 24 25 25 23 23 20 22 22 26 27 25 25 26 28 28 28 27
3 3 3 3 3 2 3 4 6 6 9 9 9 10 10 10 11 12 14 15 17 19 18 19 20 20 24 23 26 26 26 23 24 23 25 26 24 26 26 24 26 29 29 28 27
3 2 2 2 3 3 4 4 5 7 7 7 7 10 10 9 11 12 13 14 15 16 15 15 20 21 22 25 26 25 25 25 25 23 26 25 25 25 28 29 26 27 28 27 27
2 2 2 3 1 3 4 4 5 5 7 7 8 7 9 10 11 11 10 12 14 14 14 14 17 20 24 23 24 23 26 26 26 24 26 25 26 27 28 28 27 27 28 29 29

GFSSW_850_temp_186.txt.gz
Temp
17 17 18 18 19 19 20 20 21 21 22 23 23 24 25 26 26 27 28 28 28 27 27 27 27 25 22 22 23 23 21 22 22 22 22 21 20 20 19 18 18 17 17 17 16
16 17 17 18 18 19 19 20 20 21 22 22 23 23 24 25 27 28 27 28 27 27 27 27 27 26 24 23 24 22 20 23 24 23 22 21 21 20 19 18 16 16 16 16 16
16 16 17 17 18 18 19 19 20 21 21 22 23 23 24 24 26 27 27 27 27 27 27 27 27 26 24 25 25 23 23 24 24 24 23 21 21 20 19 19 17 16 16 16 16
14 15 16 16 17 18 19 20 20 20 21 22 22 23 23 24 25 27 27 27 27 28 28 27 27 27 26 25 26 25 25 25 23 23 22 21 20 19 19 18 19 16 16 16 16
14 14 15 16 17 17 18 19 20 20 20 21 22 22 22 23 26 27 27 27 27 27 28 28 28 27 25 25 26 25 24 24 23 23 22 22 20 19 16 16 17 16 16 15 16
13 14 14 15 16 17 18 19 19 20 20 21 21 21 21 19 26 27 27 27 27 27 28 28 27 27 27 25 24 24 23 23 23 23 21 19 19 20 16 16 16 16 16 16 16
13 14 14 15 15 16 18 18 19 20 20 20 20 20 20 22 25 26 26 26 27 27 28 29 28 27 27 25 25 24 21 21 22 21 20 22 19 17 16 16 15 15 16 16 16
12 13 13 15 15 16 17 18 19 20 20 20 20 19 19 24 25 25 26 26 26 26 28 28 28 27 27 26 25 23 21 20 22 22 21 22 20 17 17 17 16 16 16 16 16
12 12 13 14 15 16 17 18 19 20 20 20 19 19 20 23 23 25 25 25 26 27 27 27 27 27 26 22 22 21 21 22 22 23 22 21 19 18 17 17 17 17 17 17 17
11 12 13 13 14 15 17 17 17 17 18 18 18 18 22 23 23 23 24 24 25 27 27 27 27 21 19 21 21 23 23 22 23 22 22 20 20 18 17 17 18 18 18 18 18
10 11 12 13 13 14 16 17 16 17 16 17 17 18 21 22 22 24 24 24 24 26 23 25 22 22 23 22 24 24 24 24 24 24 22 20 20 18 18 17 18 18 18 18 18
9 10 11 12 13 13 13 13 8 8 9 18 18 17 20 19 19 23 23 24 24 22 22 21 21 23 24 24 25 24 24 24 24 24 23 20 21 19 18 18 18 18 19 19 18
8 9 10 12 12 13 12 11 10 10 7 15 19 19 20 20 19 23 23 24 22 20 21 21 23 24 25 24 25 23 23 23 25 24 22 21 21 18 19 19 18 18 19 19 19
8 8 9 11 11 11 11 11 11 11 9 13 15 19 19 21 19 24 24 25 22 21 20 23 24 24 24 25 24 24 24 25 24 23 22 23 21 19 18 18 19 19 19 19 19
8 8 8 8 9 10 11 12 12 11 13 18 17 19 19 20 22 21 24 24 21 21 21 22 22 23 24 25 26 25 25 24 24 23 22 23 21 21 19 18 18 19 19 20 20
8 8 8 8 9 9 10 12 12 11 11 16 19 18 18 19 21 21 22 24 25 23 23 22 24 24 24 26 27 26 25 22 19 19 20 21 22 22 18 21 20 21 20 20 21
7 8 8 9 9 10 10 11 10 9 14 15 14 13 14 17 19 21 20 20 19 19 20 22 23 25 26 26 26 24 22 20 21 20 21 20 21 25 23 21 22 21 21 21 22
7 8 8 8 9 9 10 8 9 12 11 12 12 12 16 16 18 20 19 20 20 20 18 19 21 23 25 25 23 23 23 20 22 21 22 20 21 24 25 25 25 24 27 23 22
7 8 8 8 8 8 8 6 8 10 11 10 12 12 12 13 13 17 18 21 22 19 20 17 21 24 24 25 27 23 23 22 19 20 21 21 22 24 25 22 23 23 23 22 23
7 7 7 7 7 8 5 5 7 9 10 10 9 10 11 11 12 13 18 20 20 20 21 19 21 23 25 27 26 24 24 23 18 23 23 22 23 23 26 22 23 22 23 23 24
6 7 7 7 7 7 3 3 6 9 10 9 9 9 11 11 11 12 16 18 16 20 20 18 20 22 23 23 23 23 22 19 19 19 21 21 22 22 25 22 23 23 24 25 26
5 2 6 7 5 1 3 5 7 8 10 9 10 9 10 11 10 12 12 14 17 16 22 20 17 20 22 24 24 25 22 21 20 21 18 20 23 25 24 23 24 24 26 27 28
3 3 6 6 2 1 2 4 7 7 9 9 9 10 11 10 10 10 13 16 16 15 15 19 17 18 23 22 23 26 22 20 19 18 19 21 23 24 22 23 26 25 25 29 29
3 1 4 5 3 3 3 3 5 7 8 8 9 10 9 10 9 10 12 14 15 15 17 17 15 20 20 22 21 23 22 22 22 19 20 20 25 26 26 24 24 27 27 27 29
3 1 2 -0 2 1 1 3 4 5 7 7 8 9 9 8 8 9 12 12 14 16 15 14 16 19 21 23 24 24 23 21 24 22 25 26 22 24 23 23 26 30 29 27 27
2 2 2 1 1 1 2 3 4 6 6 6 6 8 6 7 9 9 9 11 10 11 11 10 16 18 21 23 24 23 24 23 25 22 24 25 23 23 26 27 27 30 29 27 28
2 2 2 3 1 2 2 5 5 6 6 6 6 6 5 7 8 8 8 9 8 9 10 11 12 13 21 21 22 21 25 22 23 22 25 24 26 25 25 23 27 29 29 30 28